Regional Weather Roundup
Issued by NWS

Home | Current Version | Previous Version | Graphics & Text | Print | Product List | Glossary On
Versions: 1 2 3 4 5 6 7 8 9 10 11 12 13 14 15 16 17 18 19 20 21 22 23 24 25 26 27 28 29 30 31 32 33 34 35 36 37 38 39 40 41 42 43 44 45 46 47 48 49 50
000
ASUS43 KLSX 172059
RWRMO

WEATHER SUMMARY FOR MISSOURI
NATIONAL WEATHER SERVICE SPRINGFIELD MO
300 PM CST WED DEC 17 2014

NOTE: "FAIR" INDICATES FEW OR NO CLOUDS BELOW 12,000 FEET WITH NO
       SIGNIFICANT WEATHER AND/OR OBSTRUCTIONS TO VISIBILITY.
       CURRENT SKY AND/OR WEATHER CONDITIONS ARE NOT AVAILABLE FOR
       CHILLICOTHE AND FARMINGTON.

MOZ001>031-035>038-043-044-053-054-172200-
...NORTHERN AND WESTERN MISSOURI...

CITY           SKY/WX    TMP DP  RH WIND       PRES   REMARKS
KANSAS CTY INT CLOUDY    30  20  66 NE6       30.25F WCI  24
KANSAS C DTWN  CLOUDY    32  18  56 CALM      30.26F
LEE`S SUMMIT   CLOUDY    30  18  60 NE5       30.25F WCI  25
ST JOSEPH      CLOUDY    29  19  66 N5        30.26F WCI  24
CHILLICOTHE      N/A     29  21  72 N5        30.29F WCI  24
KIRKSVILLE     SUNNY     32  20  61 VRB3      30.28F

$$
MOZ066>068-077>081-088>096-101>105-172200-
...SOUTHWEST MISSOURI...

CITY           SKY/WX    TMP DP  RH WIND       PRES   REMARKS
SPRINGFIELD    CLOUDY    34  26  72 E8        30.20F WCI  27
JOPLIN         CLOUDY    34  26  72 SE6       30.22S WCI  29

$$
MOZ032>034-039>042-045>050-055>058-069>072-172200-
...CENTRAL MISSOURI...

CITY           SKY/WX    TMP DP  RH WIND       PRES   REMARKS
COLUMBIA       PTSUNNY   34  23  64 CALM      30.26F
JEFFERSON CITY CLOUDY    35  22  58 NW5       30.28F
ROLLA          CLOUDY    34  22  61 CALM      30.24S
SEDALIA        CLOUDY    33  22  63 VRB5      30.27F WCI  29
WARRENSBURG    CLOUDY    32  21  64 NE3       30.26F
OSAGE BEACH    CLOUDY    34  19  55 CALM      30.26F

$$
MOZ051-052-059>065-172200-
...EAST CENTRAL MISSOURI...

CITY           SKY/WX    TMP DP  RH WIND       PRES   REMARKS
ST LOUIS INTL  PTSUNNY   38  25  59 N6        30.28S
SPIRIT OF STL  PTSUNNY   38  24  57 N5        30.27S

$$
MOZ072>076-082>087-097>100-106>115-172200-
...SOUTH CENTRAL AND SOUTHEAST MISSOURI...

CITY           SKY/WX    TMP DP  RH WIND       PRES   REMARKS
CAPE GIRARDEAU MOSUNNY   38  28  67 W5        30.28R
FARMINGTON     PTSUNNY   39  23  52 W5        30.26S
POPLAR BLUFF   PTSUNNY   39  25  57 SW5       30.28R
WEST PLAINS    CLOUDY    40  25  55 N3        30.23F

$$



USA.gov is the U.S. government's official web portal to all federal, state and local government web resources and services.